Location: Unspecified
(0.0000°N, 0.0000°E)
Time: 07:41:09
(UTC+00:00)

Vanguard 2 Rocket - Visible Passes

Search period start: 29 May 2016 00:00
Search period end: 08 June 2016 00:00
Orbit: 554 x 3329 km, 32.9° (Epoch: 28 May)

Date Brightness Start Highest point End Pass type
(mag) Time Alt. Az. Time Alt. Az. Time Alt. Az.
29 May 7.3 03:38:02 48° ENE 03:38:02 48° ENE 03:41:27 10° ESE visible
29 May 10.9 19:20:37 10° WNW 19:36:17 28° NNW 19:51:01 10° NNE visible
29 May 10.7 21:51:20 10° NW 21:59:18 14° N 22:06:04 10° NNE visible
30 May 10.3 00:14:35 10° NNW 00:18:05 14° N 00:18:05 14° N visible
30 May 7.0 04:49:26 25° WSW 04:50:56 30° SW 04:54:37 10° SSE visible
30 May 10.9 18:17:14 10° W 18:33:28 36° NNW 18:50:40 10° NNE visible
30 May 10.8 20:44:56 10° NW 20:56:19 17° NNW 21:06:09 10° NNE visible
30 May 10.4 23:12:18 10° NNW 23:19:04 14° N 23:21:39 13° NNE visible
31 May 7.8 03:54:42 28° SE 03:54:42 28° SE 03:56:40 10° SE visible
31 May 10.9 19:39:17 10° WNW 19:53:06 22° NNW 20:05:54 10° NNE visible
31 May 10.6 22:08:35 10° NNW 22:16:49 15° N 22:23:37 10° NNE visible
01 Jun 10.3 00:28:07 10° NNW 00:31:01 15° NNW 00:31:01 15° NNW visible
01 Jun 8.0 05:05:45 13° SW 05:05:49 14° SW 05:08:03 10° S visible
01 Jun 11.0 18:35:00 10° WNW 18:49:54 27° NNW 19:05:17 10° NNE visible
01 Jun 10.7 21:03:37 10° NW 21:13:53 16° N 21:22:39 10° NNE visible
01 Jun 10.2 23:26:26 10° NNW 23:34:36 19° N 23:34:36 19° N visible
02 Jun 8.5 04:10:44 13° SSE 04:10:44 13° SSE 04:11:12 10° SSE visible
02 Jun 10.9 19:58:17 10° NW 20:10:30 18° N 20:21:36 10° NNE visible
02 Jun 10.3 22:23:58 10° NNW 22:34:07 18° N 22:38:10 16° NNE visible
03 Jun 10.4 00:42:04 10° NW 00:43:57 14° NNW 00:43:57 14° NNW visible
03 Jun 11.0 18:53:32 10° WNW 19:06:57 22° NNW 19:20:25 10° NNE visible
03 Jun 10.6 21:20:37 10° NNW 21:31:30 17° N 21:40:28 10° NE visible
03 Jun 10.2 23:40:29 10° NNW 23:47:32 23° N 23:47:32 23° N visible
04 Jun 11.1 17:49:57 10° WNW 18:03:37 26° NNW 18:19:02 10° NNE visible
04 Jun 10.8 20:16:30 10° NW 20:28:13 18° N 20:38:36 10° NE visible
04 Jun 10.1 22:38:30 10° NNW 22:51:03 24° NNE 22:51:07 24° NNE visible
05 Jun 10.6 00:56:22 10° NW 00:56:54 11° NW 00:56:54 11° NW visible
05 Jun 10.9 19:12:12 10° NW 19:24:33 19° N 19:36:31 10° NNE visible
05 Jun 10.3 21:36:04 10° NNW 21:48:50 21° NNE 21:54:42 17° NE visible
05 Jun 10.2 23:54:39 10° NW 00:00:29 23° NNW 00:00:29 23° NNW visible
06 Jun 11.0 18:08:20 10° NW 18:20:52 21° N 18:34:23 10° NNE visible
06 Jun 10.6 20:33:11 10° NNW 20:45:54 19° N 20:56:39 10° NE visible
06 Jun 10.0 22:52:46 10° NW 23:04:05 31° N 23:04:05 31° N visible
07 Jun 10.8 19:29:58 10° NW 19:42:22 19° N 19:53:57 10° NE visible
07 Jun 10.0 21:50:44 10° NNW 22:05:42 28° NNE 22:07:42 28° NNE visible
